Weather History for Point Mugu, CA

Change the Weather History Date:

Monday, June 17, 2013

  Actual Average Record
Temperature  
Mean Temperature 65 °F -  
Max Temperature 71 °F 66 °F 75 °F (2006)
Min Temperature 59 °F 54 °F 51 °F (2008)
Growing Degree Days 15 (Base 50)    
Moisture  
Dew Point 59 °F    
Average Humidity 80    
Maximum Humidity 94    
Minimum Humidity 66    
Precipitation  
Precipitation 0.00 in - - ()
Sea Level Pressure  
Sea Level Pressure 29.95 in    
Wind  
Wind Speed 6 mph (South)    
Max Wind Speed 10 mph    
Max Gust Speed -    
Visibility 5 miles    
Events      
Averages and records for this station are not official NWS values.
T = Trace of Precipitation, MM = Missing Value Source: NWS Daily Summary

Daily Weather History Graph

Daily Weather History Graph

Search for Another Location

Airport:

Trip Planner

Search our weather history database for the weather conditions in past years. The results will help you decide how hot, cold, wet, or windy it might be!

Date:

Astronomy

Jun. 17, 2013 Rise Set
Actual Time 5:44 AM PDT 8:10 PM PDT
Civil Twilight 5:15 AM PDT 8:39 PM PDT
Nautical Twilight 4:39 AM PDT 9:15 PM PDT
Astronomical Twilight 3:59 AM PDT 9:55 PM PDT
Moon 2:07 PM PDT (6/17) 1:08 AM PDT (6/17)
Length of Visible Light 15h 24m
Length of Day
14h 25m
First Quarter, 61% of the Moon is Illuminated
Jun 17
First Quarter
Jun 23
Full
Jun 29
Last Quarter
Jul 8
New
Jul 15
First Quarter

Hourly Weather History & Observations

Time (PDT) Temp. Dew Point Humidity Pressure Visibility Wind Dir Wind Speed Gust Speed Precip Events Conditions
12:54 AM - - N/A% - - SSE 5.8 mph - N/A   Partly Cloudy
1:13 AM - - N/A% - - SSE 8.1 mph - N/A   Mostly Cloudy
1:54 AM - - N/A% - - SE 4.6 mph - N/A   Mostly Cloudy
2:54 AM - - N/A% - - SE 4.6 mph - N/A   Overcast
3:54 AM - - N/A% - - SE 3.5 mph - N/A   Overcast
4:54 AM - - N/A% - - ENE 3.5 mph - N/A   Overcast
5:54 AM 59.0 °F 55.4 °F 88% 29.95 in 3.0 mi ENE 3.5 mph - N/A   Overcast
6:15 AM 59.0 °F 55.4 °F 88% 29.95 in 1.0 mi NE 3.5 mph - N/A   Overcast
6:54 AM 59.0 °F 56.5 °F 91% 29.96 in 1.0 mi Calm Calm - N/A   Overcast
7:54 AM 61.2 °F 58.1 °F 90% 29.99 in 1.5 mi SSE 4.6 mph - N/A   Overcast
7:57 AM 60.8 °F 59.0 °F 94% 29.98 in 1.5 mi SE 4.6 mph - N/A   Overcast
8:38 AM 60.8 °F 59.0 °F 94% 29.98 in 2.0 mi SSE 8.1 mph - N/A   Overcast
8:54 AM 61.2 °F 57.4 °F 87% 29.99 in 2.0 mi South 6.9 mph - N/A   Overcast
9:40 AM 62.6 °F 57.2 °F 82% 29.98 in 2.0 mi SSE 8.1 mph - N/A   Overcast
9:54 AM 63.3 °F 58.3 °F 84% 29.99 in 3.0 mi South 9.2 mph - N/A   Overcast
10:54 AM 66.0 °F 59.4 °F 79% 29.99 in 4.0 mi South 10.4 mph - N/A   Haze
11:54 AM 67.5 °F 59.7 °F 76% 29.99 in 5.0 mi SW 9.2 mph - N/A   Haze
12:19 PM 68.0 °F 60.8 °F 78% 29.99 in 5.0 mi SSW 8.1 mph - N/A   Haze
12:54 PM 69.6 °F 60.6 °F 73% 29.99 in 7.0 mi SW 6.9 mph - N/A   Partly Cloudy
1:54 PM 71.4 °F 59.5 °F 66% 29.96 in 7.0 mi SW 10.4 mph - N/A   Partly Cloudy
2:54 PM 71.8 °F 61.0 °F 69% 29.94 in 7.0 mi WSW 9.2 mph - N/A   Partly Cloudy
3:54 PM 70.9 °F 61.7 °F 73% 29.91 in 7.0 mi South 6.9 mph - N/A   Partly Cloudy
4:54 PM 69.8 °F 61.2 °F 74% 29.91 in 7.0 mi SSW 9.2 mph - N/A   Partly Cloudy
5:54 PM 69.8 °F 61.2 °F 74% 29.91 in 7.0 mi Variable 6.9 mph - N/A   Partly Cloudy
6:54 PM 66.6 °F 57.4 °F 72% 29.88 in 7.0 mi SSW 5.8 mph - N/A   Clear
7:54 PM 66.6 °F 57.4 °F 72% 29.88 in 7.0 mi Calm Calm - N/A   Clear
8:54 PM 65.1 °F 56.1 °F 73% 29.87 in 7.0 mi West 3.5 mph - N/A   Clear
9:54 PM 65.5 °F 59.2 °F 80% 29.89 in 7.0 mi WSW 3.5 mph - N/A   Clear
10:54 PM 65.5 °F 59.2 °F 80% 29.89 in 7.0 mi WSW 4.6 mph - N/A   Clear
11:54 PM - - N/A% - - West 6.9 mph - N/A   Clear